Weather History for Manteo, NC

Change the Weather History Date:

Thursday, March 28, 2013

  Actual Average Record
Temperature  
Mean Temperature 47 °F -  
Max Temperature 54 °F 60 °F 80 °F (1968)
Min Temperature 40 °F 46 °F 30 °F (1971)
Degree Days  
Heating Degree Days 18    
Moisture  
Dew Point 32 °F    
Average Humidity 58    
Maximum Humidity 78    
Minimum Humidity 37    
Precipitation  
Precipitation 0.00 in - - ()
Sea Level Pressure  
Sea Level Pressure 30.15 in    
Wind  
Wind Speed 7 mph (NNW)    
Max Wind Speed 13 mph    
Max Gust Speed 20 mph    
Visibility 10 miles    
Events      
Averages and records for this station are not official NWS values.
T = Trace of Precipitation, MM = Missing Value Source: NWS Daily Summary

Daily Weather History Graph

Daily Weather History Graph

Search for Another Location

Airport:

Trip Planner

Search our weather history database for the weather conditions in past years. The results will help you decide how hot, cold, wet, or windy it might be!

Date:

Astronomy

Mar. 28, 2013 Rise Set
Actual Time 6:54 AM EDT 7:21 PM EDT
Civil Twilight 6:28 AM EDT 7:47 PM EDT
Nautical Twilight 5:58 AM EDT 8:17 PM EDT
Astronomical Twilight 5:28 AM EDT 8:48 PM EDT
Moon 9:05 PM EDT (3/28) 7:24 AM EDT (3/28)
Length of Visible Light 13h 18m
Length of Day
12h 26m
Full, 98% of the Moon is Illuminated
Mar 28
Full
Apr 3
Last Quarter
Apr 10
New
Apr 18
First Quarter
Apr 25
Full

Hourly Weather History & Observations

Time (EDT) Temp. Windchill Dew Point Humidity Pressure Visibility Wind Dir Wind Speed Gust Speed Precip Events Conditions
12:15 AM 45.9 °F 43.6 °F 31.5 °F 57% 30.14 in 10.0 mi NNW 4.6 mph - N/A   Scattered Clouds
12:35 AM 45.5 °F 42.5 °F 32.0 °F 59% 30.13 in 10.0 mi NW 5.8 mph - N/A   Clear
12:55 AM 45.1 °F 40.8 °F 31.3 °F 58% 30.14 in 10.0 mi NNW 8.1 mph - N/A   Clear
1:15 AM 44.8 °F 42.4 °F 30.7 °F 58% 30.14 in 10.0 mi NW 4.6 mph - N/A   Clear
1:35 AM 44.2 °F 41.0 °F 31.3 °F 60% 30.14 in 10.0 mi NW 5.8 mph - N/A   Clear
1:55 AM 44.2 °F 41.0 °F 30.0 °F 57% 30.14 in 10.0 mi NW 5.8 mph - N/A   Clear
2:15 AM 44.1 °F 40.1 °F 29.8 °F 57% 30.14 in 10.0 mi NNW 6.9 mph - N/A   Clear
2:35 AM 43.9 °F 39.9 °F 28.8 °F 55% 30.14 in 10.0 mi NW 6.9 mph - N/A   Clear
2:55 AM 43.7 °F 38.1 °F 28.6 °F 55% 30.14 in 10.0 mi NW 10.4 mph - N/A   Clear
3:35 AM 43.0 °F 38.8 °F 29.3 °F 59% 30.14 in 10.0 mi NW 6.9 mph - N/A   Clear
3:55 AM 42.8 °F 38.6 °F 29.3 °F 59% 30.13 in 10.0 mi NW 6.9 mph - N/A   Clear
4:15 AM 42.3 °F 37.3 °F 29.1 °F 60% 30.13 in 10.0 mi NNW 8.1 mph - N/A   Clear
4:35 AM 42.3 °F 37.9 °F 29.7 °F 61% 30.13 in 10.0 mi NNW 6.9 mph - N/A   Clear
4:55 AM 42.3 °F 38.6 °F 30.0 °F 62% 30.13 in 10.0 mi NW 5.8 mph - N/A   Clear
5:15 AM 42.1 °F 39.2 °F 30.0 °F 62% 30.13 in 10.0 mi NW 4.6 mph - N/A   Clear
5:35 AM 41.9 °F 37.5 °F 30.9 °F 65% 30.13 in 10.0 mi NW 6.9 mph - N/A   Clear
5:55 AM 41.4 °F 36.8 °F 31.1 °F 67% 30.13 in 10.0 mi NW 6.9 mph - N/A   Clear
6:15 AM 41.0 °F 37.1 °F 31.1 °F 68% 30.13 in 10.0 mi NW 5.8 mph - N/A   Clear
6:35 AM 40.8 °F 36.2 °F 31.1 °F 68% 30.14 in 10.0 mi NW 6.9 mph - N/A   Clear
6:55 AM 40.5 °F 37.3 °F 31.3 °F 70% 30.14 in 10.0 mi NW 4.6 mph - N/A   Clear
7:15 AM 41.0 °F 36.4 °F 31.1 °F 68% 30.14 in 10.0 mi NW 6.9 mph - N/A   Clear
7:35 AM 41.5 °F 36.4 °F 31.3 °F 67% 30.15 in 10.0 mi NW 8.1 mph - N/A   Clear
7:55 AM 42.3 °F 37.9 °F 31.8 °F 67% 30.15 in 10.0 mi NW 6.9 mph - N/A   Clear
8:15 AM 42.8 °F 37.0 °F 32.0 °F 66% 30.15 in 10.0 mi WNW 10.4 mph 16.1 mph N/A   Clear
8:35 AM 43.7 °F 38.6 °F 32.0 °F 63% 30.16 in 10.0 mi NW 9.2 mph - N/A   Clear
8:55 AM 43.9 °F 38.8 °F 31.6 °F 62% 30.16 in 10.0 mi NW 9.2 mph - N/A   Clear
9:15 AM 44.6 °F 38.8 °F 31.3 °F 60% 30.16 in 10.0 mi NNW 11.5 mph 18.4 mph N/A   Clear
9:35 AM 45.0 °F 38.9 °F 31.5 °F 59% 30.16 in 10.0 mi NW 12.7 mph 19.6 mph N/A   Clear
9:55 AM 46.2 °F 41.2 °F 31.5 °F 56% 30.17 in 10.0 mi WNW 10.4 mph 16.1 mph N/A   Unknown
10:15 AM 46.9 °F - 31.8 °F 56% 30.17 in 10.0 mi NW 10.4 mph 17.3 mph N/A   Clear
10:35 AM 46.9 °F - 31.3 °F 55% 30.17 in 10.0 mi NW 9.2 mph 17.3 mph N/A   Clear
10:55 AM - - - N/A% - - North - - N/A   Unknown
11:15 AM 48.2 °F - 30.0 °F 49% 30.17 in 10.0 mi NW 12.7 mph 19.6 mph N/A   Clear
11:35 AM 48.7 °F - 31.5 °F 51% 30.17 in 10.0 mi NW 8.1 mph - N/A   Clear
11:55 AM 49.3 °F - 30.7 °F 49% 30.16 in 10.0 mi NW 10.4 mph 16.1 mph N/A   Clear
12:15 PM 51.3 °F - 31.8 °F 47% 30.16 in 10.0 mi NW 8.1 mph 18.4 mph N/A   Clear
12:35 PM 51.6 °F - 31.8 °F 47% 30.15 in 10.0 mi NW 8.1 mph - N/A   Clear
12:55 PM 51.3 °F - 31.5 °F 47% 30.15 in 10.0 mi WNW 10.4 mph 16.1 mph N/A   Clear
1:15 PM 51.6 °F - 30.6 °F 45% 30.14 in 10.0 mi West 10.4 mph 16.1 mph N/A   Clear
1:35 PM 52.0 °F - 31.1 °F 45% 30.14 in 10.0 mi WNW 9.2 mph 17.3 mph N/A   Clear
1:55 PM 53.1 °F - 30.2 °F 42% 30.13 in 10.0 mi WNW 9.2 mph 16.1 mph N/A   Clear
2:15 PM 54.0 °F - 28.4 °F 37% 30.13 in 10.0 mi WNW 11.5 mph 18.4 mph N/A   Scattered Clouds
2:35 PM 53.4 °F - 29.5 °F 40% 30.12 in 10.0 mi WNW 11.5 mph 16.1 mph N/A   Mostly Cloudy
2:55 PM 52.7 °F - 28.4 °F 39% 30.12 in 10.0 mi NW 9.2 mph 16.1 mph N/A   Overcast
3:15 PM 52.7 °F - 29.5 °F 41% 30.12 in 10.0 mi WNW 8.1 mph - N/A   Overcast
3:35 PM 51.3 °F - 31.1 °F 46% 30.12 in 10.0 mi North 6.9 mph - N/A   Overcast
3:55 PM 49.3 °F - 33.3 °F 54% 30.12 in 10.0 mi NE 5.8 mph - N/A   Overcast
4:15 PM 50.2 °F - 33.6 °F 53% 30.12 in 10.0 mi ENE 8.1 mph - N/A   Overcast
4:35 PM 50.0 °F - 32.0 °F 50% 30.12 in 10.0 mi ENE 5.8 mph - N/A   Overcast
4:55 PM 50.9 °F - 32.4 °F 49% 30.12 in 10.0 mi ENE 5.8 mph - N/A   Mostly Cloudy
5:15 PM 49.6 °F - 32.0 °F 51% 30.13 in 10.0 mi ENE 6.9 mph - N/A   Mostly Cloudy
5:35 PM 49.1 °F - 32.2 °F 52% 30.14 in 10.0 mi ENE 9.2 mph - N/A   Mostly Cloudy
5:55 PM 48.2 °F - 32.0 °F 54% 30.15 in 10.0 mi ENE 6.9 mph - N/A   Overcast
6:15 PM 48.0 °F - 32.0 °F 54% 30.15 in 10.0 mi Calm Calm - N/A   Overcast
6:35 PM 47.8 °F - 32.5 °F 55% 30.16 in 10.0 mi NE 4.6 mph - N/A   Overcast
6:55 PM 46.4 °F - 32.4 °F 58% 30.16 in 10.0 mi Calm Calm - N/A   Mostly Cloudy
7:15 PM 45.9 °F - 32.7 °F 60% 30.16 in 10.0 mi Calm Calm - N/A   Clear
7:35 PM 42.4 °F - 34.5 °F 74% 30.17 in 10.0 mi Calm Calm - N/A   Scattered Clouds
7:55 PM 41.4 °F - 34.2 °F 76% 30.17 in 10.0 mi Calm Calm - N/A   Mostly Cloudy
8:15 PM 42.1 °F - 35.2 °F 77% 30.18 in 10.0 mi Calm Calm - N/A   Mostly Cloudy
8:35 PM 41.2 °F - 34.9 °F 78% 30.19 in 10.0 mi Calm Calm - N/A   Mostly Cloudy
8:55 PM 43.5 °F 40.9 °F 34.9 °F 72% 30.19 in 10.0 mi NNE 4.6 mph - N/A   Overcast
9:15 PM 45.5 °F 44.2 °F 34.7 °F 66% 30.20 in 10.0 mi North 3.5 mph - N/A   Mostly Cloudy
9:35 PM 47.3 °F - 34.0 °F 60% 30.21 in 10.0 mi North 9.2 mph - N/A   Overcast
9:55 PM 46.8 °F - 33.6 °F 60% 30.21 in 10.0 mi North 9.2 mph - N/A   Mostly Cloudy
10:15 PM 46.2 °F 42.2 °F 34.7 °F 64% 30.22 in 10.0 mi North 8.1 mph - N/A   Scattered Clouds
10:35 PM 46.4 °F 43.5 °F 33.1 °F 60% 30.22 in 10.0 mi North 5.8 mph - N/A   Clear
10:55 PM 46.2 °F 43.3 °F 34.7 °F 64% 30.22 in 10.0 mi North 5.8 mph - N/A   Clear
11:15 PM 46.4 °F 41.5 °F 34.2 °F 62% 30.22 in 10.0 mi North 10.4 mph - N/A   Clear
11:35 PM 46.0 °F 42.5 °F 33.8 °F 62% 30.23 in 10.0 mi North 6.9 mph - N/A   Clear
11:55 PM 45.9 °F 42.3 °F 33.4 °F 62% 30.23 in 10.0 mi North 6.9 mph - N/A   Clear